Location: Emblem
(62.4273°N, 6.4710°E)
Time: 15:43:50
(UTC+02:00)

Transit 4A - Pass Details

Date: 30 January 2023
Orbit: 867 x 976 km, 66.8° (Epoch: 31 March)

Event Time Altitude Azimuth Distance (km) Brightness Sun altitude
Rises 19:54:01 0° 205° (SSW) 3,450 11.1 -23.2°
Reaches altitude 10° 19:56:34 10° 200° (SSW) 2,512 10.3 -23.5°
Enters shadow 20:01:24 45° 148° (SSE) 1,182 8.1 -24.1°
